FW6253 Weather Reports


Display with metric or nautical units.
time (UTC)temp
F
wind
direction
speed
MPH
gust
MPH
rain 1hr
in
rain 24hr
in
rain mn
in
humidity
%
barometer
mb
20260503002053 69 56 0.0 4.0 0.00 0.00 0.00 47 1019.2
20260503001555 69 0 1.0 5.0 0.00 0.00 0.00 46 1019.3
20260503001052 70 66 1.0 5.0 0.00 0.00 0.00 46 1019.3
20260503000553 70 76 1.0 5.0 0.00 0.00 0.00 47 1019.3
20260503000103 70 0 2.0 5.0 0.00 0.00 0.00 46 1019.2
20260502235552 70 0 1.0 7.0 0.00 0.00 0.00 45 1019.2
20260502235052 70 0 1.0 7.0 0.00 0.00 0.00 44 1019.2
20260502234603 70 85 2.0 6.0 0.00 0.00 0.00 44 1019.2
20260502234053 70 65 1.0 6.0 0.00 0.00 0.00 43 1019.2
20260502233553 71 59 2.0 7.0 0.00 0.00 0.00 46 1019.2
20260502233056 71 72 1.0 7.0 0.00 0.00 0.00 46 1019.2
20260502232552 71 65 2.0 7.0 0.00 0.00 0.00 44 1019.2
20260502232055 71 0 0.0 10.0 0.00 0.00 0.00 47 1019.1
20260502231601 71 60 2.0 10.0 0.00 0.00 0.00 44 1019.2
20260502231055 72 78 2.0 7.0 0.00 0.00 0.00 45 1019.3
20260502230552 72 74 1.0 7.0 0.00 0.00 0.00 46 1019.2
20260502230056 72 18 3.0 8.0 0.00 0.00 0.00 44 1019.2
20260502225553 72 125 1.0 8.0 0.00 0.00 0.00 44 1019.2
20260502225052 72 93 1.0 7.0 0.00 0.00 0.00 45 1019.1
20260502224551 72 0 1.0 11.0 0.00 0.00 0.00 46 1019.0
20260502224052 72 63 2.0 11.0 0.00 0.00 0.00 44 1019.1
20260502223552 72 78 2.0 7.0 0.00 0.00 0.00 44 1019.0
20260502223057 72 67 2.0 10.0 0.00 0.00 0.00 45 1019.1
20260502222552 73 101 3.0 10.0 0.00 0.00 0.00 45 1018.9
20260502222052 73 13 2.0 10.0 0.00 0.00 0.00 44 1019.1
20260502221052 73 60 3.0 8.0 0.00 0.00 0.00 45 1019.1
20260502220552 73 66 1.0 8.0 0.00 0.00 0.00 46 1019.1
20260502220109 72 54 2.0 8.0 0.00 0.00 0.00 44 1019.1
20260502215552 73 64 3.0 11.0 0.00 0.00 0.00 45 1019.1
20260502215053 73 16 2.0 11.0 0.00 0.00 0.00 43 1019.1
20260502214552 73 55 4.0 11.0 0.00 0.00 0.00 45 1019.2
20260502214052 73 0 3.0 8.0 0.00 0.00 0.00 44 1019.2
20260502213558 73 40 3.0 8.0 0.00 0.00 0.00 45 1019.3
20260502213055 72 10 2.0 9.0 0.00 0.00 0.00 45 1019.4
20260502212552 73 69 2.0 9.0 0.00 0.00 0.00 46 1019.5
20260502212052 73 62 1.0 9.0 0.00 0.00 0.00 45 1019.6
20260502211553 73 34 3.0 9.0 0.00 0.00 0.00 45 1019.7
20260502211052 73 59 2.0 10.0 0.00 0.00 0.00 45 1019.7
20260502210555 73 71 4.0 11.0 0.00 0.00 0.00 46 1019.8
20260502210110 73 86 3.0 11.0 0.00 0.00 0.00 45 1019.9
20260502205555 73 20 3.0 11.0 0.00 0.01 0.00 45 1019.9
20260502205053 73 48 2.0 9.0 0.00 0.01 0.00 48 1020.0
20260502204554 72 65 3.0 11.0 0.00 0.01 0.00 47 1020.1
20260502204053 73 63 2.0 11.0 0.00 0.01 0.00 45 1020.0
20260502203553 73 17 3.0 11.0 0.00 0.01 0.00 46 1020.2
20260502203051 72 153 3.0 11.0 0.00 0.01 0.00 46 1020.2
20260502202552 73 61 3.0 9.0 0.00 0.01 0.00 48 1020.2
20260502202057 72 17 2.0 10.0 0.00 0.01 0.00 48 1020.3
20260502201553 72 65 2.0 10.0 0.00 0.01 0.00 47 1020.4
20260502201053 73 48 3.0 10.0 0.00 0.01 0.00 49 1020.4
20260502200555 72 34 3.0 10.0 0.00 0.01 0.00 47 1020.4
20260502200121 72 5 3.0 10.0 0.00 0.01 0.00 48 1020.5
20260502195552 72 134 3.0 12.0 0.00 0.01 0.00 46 1020.4
20260502195054 72 360 4.0 12.0 0.00 0.01 0.00 48 1020.6
20260502194555 72 65 3.0 12.0 0.00 0.01 0.00 48 1020.5
20260502194053 72 12 5.0 11.0 0.00 0.01 0.00 47 1020.5
20260502193553 73 92 2.0 12.0 0.00 0.01 0.00 51 1020.5
20260502193055 72 69 3.0 12.0 0.00 0.01 0.00 52 1020.4
20260502192553 71 67 3.0 10.0 0.00 0.01 0.00 51 1020.6
20260502192052 71 110 3.0 13.0 0.00 0.01 0.00 48 1020.5
20260502191605 71 71 3.0 13.0 0.00 0.01 0.00 47 1020.7
20260502191055 71 69 4.0 12.0 0.00 0.01 0.00 50 1020.7
20260502190554 71 59 3.0 11.0 0.00 0.01 0.00 51 1020.7
20260502185554 71 45 3.0 13.0 0.00 0.01 0.00 51 1020.9
20260502185052 71 0 5.0 12.0 0.00 0.01 0.00 51 1020.9
20260502184553 71 38 4.0 10.0 0.00 0.01 0.00 54 1020.9
20260502184052 71 12 3.0 9.0 0.00 0.01 0.00 53 1021.0
20260502183556 71 60 3.0 10.0 0.00 0.01 0.00 56 1021.1
20260502183056 70 74 3.0 10.0 0.00 0.01 0.00 53 1021.1
20260502182551 70 340 3.0 11.0 0.00 0.01 0.00 55 1021.1
20260502182051 70 49 4.0 11.0 0.00 0.01 0.00 53 1021.2
20260502181554 70 62 2.0 11.0 0.00 0.01 0.00 53 1021.4
20260502181052 70 100 3.0 10.0 0.00 0.01 0.00 54 1021.5
20260502180554 70 60 3.0 11.0 0.00 0.01 0.00 56 1021.6
20260502170107 68 66 3.0 12.0 0.00 0.10 0.00 57 1022.3
20260502164051 67 95 3.0 12.0 0.00 0.18 0.00 56 1022.3
20260502163552 66 57 3.0 13.0 0.00 0.18 0.00 56 1022.3
20260502163056 66 57 4.0 13.0 0.00 0.18 0.00 56 1022.3
20260502162553 66 45 4.0 10.0 0.00 0.18 0.00 57 1022.4
20260502162052 66 66 3.0 10.0 0.00 0.18 0.00 57 1022.3
20260502161604 66 59 2.0 11.0 0.00 0.18 0.00 61 1022.2
20260502161052 65 83 3.0 11.0 0.00 0.18 0.00 61 1022.4
20260502160552 65 360 4.0 12.0 0.00 0.18 0.00 60 1022.3
20260502160107 65 42 4.0 12.0 0.00 0.18 0.00 61 1022.3
20260502152055 62 360 2.0 11.0 0.00 0.20 0.00 67 1021.9
20260502151610 62 40 2.0 12.0 0.00 0.20 0.00 68 1021.9
20260502151052 62 40 3.0 12.0 0.00 0.20 0.00 68 1022.0
20260502150552 62 72 2.0 9.0 0.00 0.20 0.00 69 1021.8
20260502130552 52 72 0.0 6.0 0.00 0.64 0.00 87 1020.7
20260502130107 51 0 0.0 6.0 0.00 0.64 0.00 88 1020.5
20260502123554 50 74 1.0 8.0 0.00 0.72 0.00 89 1020.2
20260502123053 50 57 1.0 8.0 0.00 0.72 0.00 89 1020.1
20260502122552 49 0 1.0 7.0 0.00 0.72 0.00 90 1019.9
20260502122052 49 42 2.0 7.0 0.00 0.72 0.00 90 1019.7
20260502121552 49 43 0.0 8.0 0.00 0.72 0.00 90 1019.8
20260502121052 49 57 0.0 8.0 0.00 0.72 0.00 90 1019.7
20260502120554 49 323 0.0 5.0 0.00 0.72 0.00 90 1019.5
20260502115552 49 355 0.0 9.0 0.00 0.80 0.00 90 1019.3
20260502115052 49 67 0.0 9.0 0.00 0.80 0.00 90 1019.2
20260502114554 49 0 2.0 5.0 0.00 0.80 0.00 90 1019.3
20260502114055 49 39 0.0 4.0 0.00 0.80 0.00 90 1019.3
20260502113555 49 0 1.0 4.0 0.00 0.80 0.00 90 1019.4
20260502113056 49 59 0.0 3.0 0.00 0.80 0.00 90 1019.4
20260502112554 49 0 0.0 7.0 0.00 0.80 0.00 90 1019.3
20260502112051 49 57 2.0 7.0 0.00 0.80 0.00 90 1019.2
20260502111603 49 15 0.0 5.0 0.00 0.80 0.00 90 1019.2
20260502111052 49 49 1.0 6.0 0.00 0.80 0.00 90 1019.1
20260502110552 49 0 2.0 6.0 0.00 0.80 0.00 90 1019.0
20260502105552 49 26 2.0 10.0 0.00 1.04 0.00 90 1018.9
20260502105055 49 24 2.0 10.0 0.00 1.04 0.00 90 1018.9
20260502104554 49 17 2.0 10.0 0.00 1.04 0.00 90 1018.9
20260502104052 49 295 2.0 10.0 0.00 1.04 0.00 90 1018.9
20260502103555 49 5 2.0 8.0 0.00 1.04 0.00 90 1018.8
20260502103105 49 33 1.0 8.0 0.00 1.04 0.00 91 1018.7
20260502102554 49 43 2.0 8.0 0.00 1.04 0.00 91 1018.6
20260502102055 49 319 1.0 7.0 0.00 1.04 0.00 91 1018.6
20260502101620 49 19 1.0 7.0 0.00 1.04 0.00 91 1018.5
20260502101052 49 18 1.0 6.0 0.00 1.04 0.00 91 1018.5
20260502100551 49 16 1.0 6.0 0.00 1.04 0.00 91 1018.4
20260502100106 49 0 1.0 5.0 0.00 1.04 0.00 91 1018.3
20260502091054 49 38 0.0 3.0 0.00 1.26 0.00 91 1017.8
20260502090554 49 37 0.0 4.0 0.00 1.26 0.00 91 1017.7
20260502090115 49 0 0.0 4.0 0.00 1.26 0.00 90 1017.6
20260502071054 51 0 1.0 8.0 0.00 1.57 0.00 90 1016.9
20260502070552 51 10 1.0 5.0 0.00 1.57 0.00 90 1016.8
20260502070114 51 31 2.0 5.0 0.00 1.57 0.00 90 1016.9
20260502065554 51 46 0.0 8.0 0.00 1.80 0.00 90 1017.0
20260502065054 51 0 1.0 8.0 0.00 1.80 0.00 90 1017.1
20260502064615 51 49 0.0 8.0 0.00 1.80 0.00 90 1017.2
20260502064054 51 24 1.0 8.0 0.00 1.80 0.00 90 1017.1
20260502063554 51 59 1.0 4.0 0.00 1.80 0.00 89 1017.2
20260502063056 51 64 0.0 4.0 0.00 1.80 0.00 89 1017.1
20260502062554 51 31 0.0 4.0 0.00 1.80 0.00 89 1017.1
20260502062055 51 0 0.0 5.0 0.00 1.80 0.00 89 1017.0
20260502061551 52 5 1.0 6.0 0.00 1.80 0.00 89 1017.0
20260502061054 52 42 1.0 6.0 0.00 1.80 0.00 89 1017.1
20260502060554 52 36 1.0 6.0 0.00 1.80 0.00 89 1017.1
20260502060055 52 30 1.0 6.0 0.00 1.80 0.00 89 1017.0
20260502055554 52 0 1.0 9.0 0.00 1.86 0.00 89 1017.0
20260502055053 52 34 2.0 9.0 0.00 1.86 0.00 88 1017.0
20260502054600 52 0 2.0 9.0 0.00 1.86 0.00 88 1017.0
20260502054058 52 0 2.0 9.0 0.00 1.86 0.00 88 1017.0
20260502053556 52 0 1.0 7.0 0.00 1.86 0.00 88 1016.9
20260502053057 52 74 1.0 7.0 0.00 1.86 0.00 88 1016.8
20260502052554 52 42 2.0 9.0 0.00 1.86 0.00 88 1016.9
20260502052053 52 24 3.0 9.0 0.00 1.86 0.00 88 1016.8
20260502051555 52 348 1.0 10.0 0.00 1.86 0.00 88 1017.0
20260502051053 52 54 1.0 10.0 0.00 1.86 0.00 88 1017.1
20260502050554 52 13 2.0 9.0 0.00 1.86 0.00 88 1017.2
20260502050054 52 339 3.0 9.0 0.00 1.86 0.00 88 1017.1
20260502045553 53 46 1.0 10.0 0.00 1.86 1.86 88 1017.1
20260502045053 53 72 3.0 10.0 0.00 1.86 1.86 88 1017.1
20260502044559 53 53 2.0 13.0 0.00 1.86 1.86 88 1016.9
20260502044052 53 346 3.0 13.0 0.00 1.86 1.86 88 1016.9
20260502043553 53 13 3.0 9.0 0.00 1.86 1.86 88 1017.0
20260502043055 53 343 3.0 9.0 0.00 1.86 1.86 88 1016.9
20260502042556 53 58 2.0 10.0 0.00 1.86 1.86 88 1016.9
20260502042054 53 11 1.0 11.0 0.00 1.86 1.86 88 1016.9
20260502041600 53 15 3.0 11.0 0.00 1.86 1.86 88 1016.8
20260502041054 53 329 3.0 10.0 0.00 1.86 1.86 88 1016.8
20260502040555 53 55 3.0 9.0 0.00 1.86 1.86 88 1016.8
20260502040054 53 39 2.0 11.0 0.00 1.86 1.86 89 1016.8
20260502035554 53 41 2.0 11.0 0.00 1.86 1.86 89 1016.8
20260502035054 53 360 2.0 13.0 0.00 1.86 1.86 89 1016.8
20260502034554 53 338 2.0 13.0 0.00 1.86 1.86 89 1016.7
20260502034051 53 74 4.0 11.0 0.00 1.86 1.86 89 1016.7
20260502033555 53 80 3.0 12.0 0.00 1.86 1.86 89 1016.7
20260502033104 53 30 2.0 12.0 0.00 1.86 1.86 89 1016.6
20260502032626 53 46 3.0 8.0 0.00 1.86 1.86 89 1016.4
20260502032057 53 50 3.0 11.0 0.00 1.86 1.86 89 1016.4
20260502031559 53 41 4.0 11.0 0.00 1.86 1.86 89 1016.4
20260502031053 53 355 3.0 11.0 0.00 1.86 1.86 89 1016.3
20260502030553 53 32 3.0 11.0 0.00 1.86 1.86 89 1016.2
20260502030058 53 63 2.0 11.0 0.00 1.86 1.86 89 1016.3
20260502025554 53 355 1.0 10.0 0.00 1.86 1.86 89 1016.1
20260502025055 53 13 2.0 11.0 0.00 1.86 1.86 89 1016.2
20260502024608 53 93 3.0 11.0 0.00 1.86 1.86 89 1016.1
20260502024055 53 25 2.0 13.0 0.00 1.86 1.86 89 1016.0
20260502023552 53 50 3.0 13.0 0.00 1.86 1.86 89 1015.9
20260502023108 53 338 3.0 12.0 0.00 1.86 1.86 89 1015.7
20260502022556 53 355 3.0 11.0 0.00 1.86 1.86 89 1015.6
20260502022054 53 360 3.0 13.0 0.00 1.86 1.86 89 1015.5
20260502021552 53 350 2.0 13.0 0.00 1.86 1.86 89 1015.4
20260502021053 54 330 4.0 13.0 0.00 1.86 1.86 89 1015.2
20260502020554 54 326 3.0 12.0 0.00 1.86 1.86 89 1015.2
20260502020056 54 58 3.0 14.0 0.00 1.86 1.86 89 1015.1
20260502015555 54 355 4.0 15.0 0.00 1.86 1.86 89 1015.1
20260502015054 54 58 4.0 15.0 0.00 1.86 1.86 89 1015.0
20260502014552 54 355 4.0 12.0 0.00 1.86 1.86 89 1015.0
20260502014053 54 41 4.0 12.0 0.00 1.86 1.86 89 1014.9
20260502013552 55 46 2.0 12.0 0.00 1.86 1.86 89 1014.9
20260502013056 55 61 3.0 12.0 0.00 1.86 1.86 89 1014.8
20260502012555 55 26 1.0 13.0 0.00 1.86 1.86 89 1014.7
20260502012054 55 46 4.0 13.0 0.00 1.86 1.86 89 1014.8
20260502011553 55 70 4.0 14.0 0.00 1.86 1.86 90 1014.5
20260502011053 56 63 4.0 14.0 0.00 1.86 1.86 90 1014.2
20260502010553 56 86 3.0 14.0 0.00 1.86 1.86 89 1014.1
20260502010053 56 355 3.0 16.0 0.00 1.86 1.86 90 1014.1
20260502005554 56 27 3.0 16.0 0.00 1.86 1.86 90 1014.0
20260502005054 56 24 5.0 16.0 0.00 1.86 1.86 89 1013.8
20260502004553 56 336 3.0 13.0 0.00 1.86 1.86 90 1013.6
20260502004055 56 24 3.0 15.0 0.00 1.86 1.86 89 1013.7
20260502003551 56 17 5.0 15.0 0.00 1.86 1.86 89 1013.6
20260502003054 56 344 5.0 14.0 0.00 1.86 1.86 89 1013.6
20260502002555 56 352 4.0 14.0 0.00 1.86 1.86 90 1013.4